FW2345 Weather Reports


Display with metric or nautical units.
time (UTC)temp
F
wind
direction
speed
MPH
gust
MPH
rain 1hr
in
rain 24hr
in
rain mn
in
humidity
%
barometer
mb
20260506230021 54 0.0 0.0 0.00 0.00 0.00 88 1004.4
20260506224524 56 0.0 0.0 0.00 0.00 0.00 87 1004.0
20260506223014 59 0.0 0.0 0.00 0.00 0.00 90 1003.6
20260506221514 59 0.0 0.0 0.00 0.00 0.00 91 1003.2
20260506220014 59 0.0 0.0 0.00 0.00 0.00 91 1003.2
20260506214513 59 0.0 0.0 0.00 0.00 0.00 91 1003.1
20260506213019 58 0.0 0.0 0.00 0.00 0.00 91 1002.9
20260506211517 59 0.0 0.0 0.00 0.00 0.00 91 1002.8
20260506210015 58 0.0 0.0 0.00 0.00 0.00 91 1002.7
20260506204511 58 0.0 0.0 0.00 0.00 0.00 91 1002.7
20260506203011 58 0.0 0.0 0.00 0.00 0.00 91 1002.5
20260506201513 58 0.0 0.0 0.00 0.00 0.00 91 1002.6
20260506200012 59 0.0 0.0 0.00 0.00 0.00 91 1002.7
20260506194509 59 0.0 0.0 0.00 0.00 0.00 92 1002.8
20260506193007 59 0.0 0.0 0.00 0.00 0.00 92 1002.8
20260506191507 58 0.0 0.0 0.00 0.00 0.00 92 1002.9
20260506190006 58 0.0 0.0 0.00 0.00 0.00 92 1003.0
20260506184504 58 0.0 0.0 0.00 0.00 0.00 92 1003.2
20260506183002 58 0.0 0.0 0.00 0.00 0.00 92 1003.3
20260506181502 58 0.0 0.0 0.00 0.00 0.00 92 1003.5
20260506180101 57 0.0 0.0 0.00 0.00 0.00 92 1003.5
20260506174610 57 0.0 0.0 0.00 0.00 0.00 92 1003.6
20260506173100 57 0.0 0.0 0.00 0.00 0.00 91 1003.6
20260506171610 57 0.0 0.0 0.00 0.00 0.00 91 1003.6
20260506170104 57 0.0 0.0 0.00 0.00 0.00 91 1003.4
20260506164600 57 0.0 0.0 0.00 0.00 0.00 91 1003.5
20260506163126 57 0.0 0.0 0.00 0.00 0.00 91 1003.6
20260506161555 57 0.0 0.0 0.00 0.00 0.00 91 1003.6
20260506160055 57 0.0 0.0 0.00 0.00 0.00 91 1003.7
20260506154554 57 0.0 0.0 0.00 0.00 0.00 91 1003.8
20260506153102 57 0.0 0.0 0.00 0.00 0.00 90 1004.5
20260506151551 57 0.0 0.0 0.00 0.00 0.00 91 1004.1
20260506150051 57 0.0 0.0 0.00 0.00 0.00 90 1003.8
20260506144548 57 0.0 0.0 0.00 0.00 0.00 90 1004.0
20260506143047 58 0.0 0.0 0.00 0.00 0.00 90 1004.2
20260506141548 58 0.0 0.0 0.00 0.00 0.00 89 1004.4
20260506140046 58 0.0 0.0 0.00 0.00 0.00 89 1004.5
20260506134543 58 0.0 0.0 0.00 0.00 0.00 88 1004.6
20260506133046 58 0.0 0.0 0.00 0.00 0.00 88 1004.8
20260506131541 58 0.0 0.0 0.00 0.00 0.00 87 1004.8
20260506130042 58 0.0 0.0 0.00 0.00 0.00 87 1004.8
20260506124544 58 0.0 0.0 0.00 0.00 0.00 87 1004.6
20260506123040 58 0.0 0.0 0.00 0.00 0.00 86 1004.6
20260506121547 58 0.0 0.0 0.00 0.00 0.00 86 1004.6
20260506120040 59 0.0 0.0 0.00 0.00 0.00 84 1004.6
20260506114535 59 0.0 0.0 0.00 0.00 0.00 82 1004.8
20260506113035 59 0.0 0.0 0.00 0.00 0.00 80 1004.5
20260506111535 59 0.0 0.0 0.00 0.00 0.00 79 1004.7
20260506110036 59 0.0 0.0 0.00 0.00 0.00 79 1004.6
20260506104534 59 0.0 0.0 0.00 0.00 0.00 78 1004.2
20260506103032 59 0.0 0.0 0.00 0.00 0.00 77 1004.2
20260506101531 59 0.0 0.0 0.00 0.00 0.00 76 1004.2
20260506100031 59 0.0 0.0 0.00 0.00 0.00 75 1004.2
20260506094527 60 0.0 0.0 0.00 0.00 0.00 74 1004.4
20260506093027 60 0.0 0.0 0.00 0.00 0.00 74 1004.3
20260506091526 60 0.0 0.0 0.00 0.00 0.00 73 1004.3
20260506090025 60 0.0 0.0 0.00 0.00 0.00 72 1004.3
20260506084533 60 0.0 0.0 0.00 0.00 0.00 71 1004.5
20260506083025 60 0.0 0.0 0.00 0.00 0.00 70 1004.7
20260506081520 61 0.0 0.0 0.00 0.00 0.00 69 1004.6
20260506080122 61 0.0 0.0 0.00 0.00 0.00 69 1004.6
20260506073017 61 0.0 0.0 0.00 0.00 0.00 68 1004.8
20260506071516 61 0.0 0.0 0.00 0.00 0.00 67 1004.8
20260506061509 61 0.0 0.0 0.00 0.00 0.00 66 1005.5
20260506044601 62 0.0 0.0 0.00 0.00 0.00 63 1005.9
20260506043101 62 0.0 0.0 0.00 0.00 0.00 63 1005.9
20260506041605 63 0.0 0.0 0.00 0.00 0.00 62 1006.0
20260506040055 63 0.0 0.0 0.00 0.00 0.00 61 1006.0
20260506034556 63 0.0 0.0 0.00 0.00 0.00 60 1006.0
20260506033054 64 0.0 0.0 0.00 0.00 0.00 59 1006.0
20260506031554 64 0.0 0.0 0.00 0.00 0.00 58 1005.9
20260506030053 65 0.0 0.0 0.00 0.00 0.00 57 1006.0
20260506024556 65 0.0 0.0 0.00 0.00 0.00 56 1006.0
20260506023107 66 0.0 0.0 0.00 0.00 0.00 56 1006.1
20260506021552 67 0.0 0.0 0.00 0.00 0.00 54 1006.2
20260506020055 67 0.0 0.0 0.00 0.00 0.00 52 1006.1
20260506014551 67 0.0 0.0 0.00 0.00 0.00 53 1005.9
20260506013055 68 0.0 0.0 0.00 0.00 0.00 53 1005.7
20260506011550 68 0.0 0.0 0.00 0.00 0.00 52 1005.7
20260506010049 68 0.0 0.0 0.00 0.00 0.00 52 1005.5
20260506004547 68 0.0 0.0 0.00 0.00 0.00 50 1005.4
20260506003050 69 0.0 0.0 0.00 0.00 0.00 49 1005.2
20260506001554 69 0.0 0.0 0.00 0.00 0.00 49 1005.1
20260506000052 70 0.0 0.0 0.00 0.00 0.00 50 1005.1
20260505234546 70 0.0 0.0 0.00 0.00 0.00 50 1005.1
20260505233051 70 0.0 0.0 0.00 0.00 0.00 50 1005.0
20260505231547 71 0.0 0.0 0.00 0.00 0.00 49 1005.0